Regional Weather Roundup
Issued by NWS

Home | Current Version | Previous Version | Graphics & Text | Print | Product List | Glossary On
Versions: 1 2 3 4 5 6 7 8 9 10 11 12 13 14 15 16 17 18 19 20 21 22 23 24 25 26 27 28 29 30 31 32 33 34 35 36 37 38 39 40 41 42 43 44 45 46 47 48 49 50
000
ASUS43 KDMX 292203
RWRIA

WEATHER ROUNDUP FOR IOWA
NATIONAL WEATHER SERVICE DES MOINES IA
500 PM CDT FRI JUL 29 2016

NOTE: "FAIR" INDICATES FEW OR NO CLOUDS BELOW 12,000 FEET WITH NO
SIGNIFICANT WEATHER AND/OR OBSTRUCTIONS TO VISIBILITY.

* - THESE STATIONS ARE NOT NWS STATIONS...THUS NOT UNDER NWS
QUALITY CONTROL.  THEY ALSO DO NOT REPORT WEATHER SUCH
AS PRECIPITATION OR FOG.

IAZ001>003-012>014-020>022-031>034-043>046-292300-
   NORTHWEST IOWA

CITY           SKY/WX    TMP DP  RH WIND       PRES   REMARKS
CARROLL *      CLOUDY    72  63  73 N9        30.02F
CHEROKEE *     PTSUNNY   75  63  66 E5        30.03S
DENISON *      PTSUNNY   73  63  68 NE10      30.01S
LE MARS *      MOSUNNY   79  61  53 CALM      30.04S HX  80
SHELDON *      MOSUNNY   75  61  60 NE7G14    30.03F
SIOUX CITY     MOSUNNY   81  57  43 CALM      30.01F HX  81
SPENCER        CLOUDY    75  60  59 E6        30.04F
STORM LAKE *   SUNNY     73  63  68 VRB5      30.04F
$$

IAZ055>058-069>071-079>083-090>094-292300-
   SOUTHWEST IOWA

CITY           SKY/WX    TMP DP  RH WIND       PRES   REMARKS
ATLANTIC *     MOSUNNY   75  64  69 N12G17    30.00F
CLARINDA *       N/A     79  63  57 MISG      30.01S HX  80
COUNCIL BLFS * MOSUNNY   79  64  61 N9        30.01F HX  81
CRESTON *      MOSUNNY   75  64  69 N13       30.01S
HARLAN  *      MOSUNNY   75  64  69 N12       30.05F
LAMONI         MOSUNNY   78  65  63 N10       29.98S HX  80
RED OAK *      MOSUNNY   79  64  61 N10       30.00S HX  81
SHENANDOAH *   MOSUNNY   79  64  61 N8        30.00S HX  81
$$

IAZ047>049-059>061-072>074-084-292300-
   CENTRAL IOWA

CITY           SKY/WX    TMP DP  RH WIND       PRES   REMARKS
AMES           CLOUDY    70  65  84 N8        30.00S
ANKENY *         N/A    N/A N/A N/A MISG        N/A
BOONE *        CLOUDY    70  63  78 N12       30.00F
CHARITON *       N/A    N/A N/A N/A MISG        N/A
DES MOINES     CLOUDY    73  64  73 N7        29.98F
GRINNELL*      CLOUDY    68  65  90 N7        29.99R
KNOXVILLE *    CLOUDY    72  64  78 N12       29.97S
MARSHALLTOWN   PTSUNNY   72  66  81 N10       29.98S
NEWTON *       CLOUDY    70  66  88 NW8       29.98S
PELLA *        CLOUDY    71  65  82 N7        29.99S
PERRY *        CLOUDY    70  66  86 N8        30.01F
$$

IAZ004>006-015-016-023>025-035-036-292300-
   NORTH CENTRAL IOWA

CITY           SKY/WX    TMP DP  RH WIND       PRES   REMARKS
ALGONA *       CLOUDY    72  63  73 N3        30.04S
ESTHERVILLE    CLOUDY    75  61  61 N8        30.04S
FORT DODGE *   CLOUDY    70  61  73 CALM      30.03F
MASON CITY     CLOUDY    73  61  65 NE7       30.03S
FOREST CITY *  CLOUDY    70  61  73 CALM      30.03R
IOWA FALLS *   PTSUNNY   74  65  73 N8        30.01S
$$

IAZ007>011-017>019-026>030-037>042-050>054-066-292300-
   NORTHEAST IOWA

CITY           SKY/WX    TMP DP  RH WIND       PRES   REMARKS
CEDAR RAPIDS   CLOUDY    72  69  90 N9        29.95R
CHARLES CITY * CLOUDY    72  66  83 NE7       30.01S
CLINTON *      CLOUDY    78  70  76 NW13      29.93S HX  80
DECORAH *      CLOUDY    70  66  88 N5        29.98F
DUBUQUE        CLOUDY    70  66  87 N7        29.97S
MONTICELLO *   CLOUDY    72  66  83 NE5       29.96R
OELWEIN *      CLOUDY    70  64  83 N13       29.99S
WATERLOO       CLOUDY    70  63  78 N8        29.98S
$$

IAZ064-065-067-068-078-292300-
   EAST CENTRAL IOWA

CITY           SKY/WX    TMP DP  RH WIND       PRES   REMARKS
DAVENPORT      PTSUNNY   77  68  73 N8        29.93R
IOWA CITY      PTSUNNY   76  67  73 N10       29.94S
MT. PLEASANT * PTSUNNY   77  67  70 NW6       29.95R
MUSCATINE *    MOSUNNY   79  68  69 N10       29.93R HX  81
QUAD CITIES    PTSUNNY   81  67  62 N9        29.91R HX  83
$$

IAZ062-063-075>077-085>089-095>099-292300-
   SOUTHEAST IOWA

CITY           SKY/WX    TMP DP  RH WIND       PRES   REMARKS
BURLINGTON     MOSUNNY   77  67  71 W9        29.93S
FAIRFIELD *    MOSUNNY   77  66  69 W12       29.95S
KEOKUK *       MOSUNNY   79  64  61 NW8G14    29.94S HX  81
CENTERVILLE *    N/A     75  64  69 N6        29.99S
OTTUMWA        CLOUDY    75  64  68 W9        29.96S
WASHINGTON *   SUNNY     77  68  73 W9        29.95S
$$

ABBREVIATIONS USED IN REMARKS
   TC - TEMPERATURES IN CELSIUS
  WCI - WIND CHILL INDEX
   HX - HEAT INDEX
  VSB - VISIBILITY
$$





USA.gov is the U.S. government's official web portal to all federal, state and local government web resources and services.